[[{"header":{"parameterUnit":"m.s-1","parameterCategory":1,"la1":30.2991,"la2":30.254,"lo1":-89.0895,"lo2":-89.0444,"dy":0.0017,"dx":0.0017,"nx":28,"ny":28,"refTime":"2025-07-12T03:00:00:Z","depth":0,"parameterNumber":2,"parameterNumberName":"U-component_of_WINDS"},"data":[0,0,0,0,0,0,0,0,0,0,0,0,0,0,0,0,0,0,0,0,0,0,0,0,0,0,0,0,0,0,0,0,0,0,0,0,0,0,0,0,0,0,0,0,0,0,0,0,0,0,0,0,0,0,0,0,0,0,2.7294,2.7295,0,2.7357,2.7358,2.7359,2.7327,2.7325,2.7323,2.7322,2.7386,2.7389,2.7392,0,0,0,0,0,0,0,0,0,0,0,0,0,2.7145,2.7148,2.7294,2.7295,2.7296,2.7357,2.7358,2.7359,2.7327,2.7325,2.7323,2.7321,2.7385,2.7389,2.7393,0,0,0,0,0,0,0,0,0,0,0,0,0,2.7209,2.7149,2.7294,2.7287,2.7287,2.7357,2.7358,2.7359,2.7327,2.7325,2.7323,2.732,2.7384,2.7388,2.7393,2.7473,0,0,2.7408,2.741,0,0,0,0,0,0,0,0,2.7206,2.7215,2.7288,2.7288,2.7288,2.7332,2.7329,2.7397,2.7328,2.7312,2.7322,2.7319,2.737,2.7376,2.7393,2.7476,2.7479,2.7409,2.7412,2.7414,2.7415,0,0,0,0,0,0,0,2.7201,2.7212,2.7319,2.7289,2.7289,2.7281,2.7287,2.7342,2.7354,2.7313,2.7311,2.7319,2.737,2.7388,2.7394,2.748,2.7408,2.7413,2.7416,2.7418,2.7629,2.7631,0,0,0,0,0,0,2.7197,2.7208,2.7317,2.7321,2.724,2.7285,2.7293,2.732,2.7354,2.7356,2.7321,2.7317,2.7381,2.7389,2.7396,2.749,2.7414,2.7418,2.7421,2.7626,2.763,2.7632,0,0,0,0,0,0,2.7194,2.7207,2.7315,2.7264,2.7277,2.7291,2.7322,2.7323,2.7341,2.7359,2.7361,2.7338,2.738,2.739,2.7454,2.7492,2.742,2.7425,2.7623,2.7627,2.7631,2.7679,0,0,0,0,0,0,2.719,2.7206,2.7237,2.7265,2.728,2.7372,2.7324,2.7326,2.735,2.7346,2.7376,2.7379,2.7378,2.7447,2.7459,2.7497,2.7429,2.762,2.7625,2.763,2.7674,2.7685,2.7693,0,0,0,0,0,2.7185,2.7249,2.7239,2.7252,2.7319,2.7374,2.7382,2.7381,2.7353,2.7384,2.7395,2.7378,2.7486,2.7453,2.7467,2.7508,2.7617,2.7623,2.7629,2.767,2.7683,2.7693,0,0,0,0,0,0,2.7225,2.7252,2.7242,2.7317,2.7343,2.7368,2.7407,2.7395,2.7429,2.7424,2.7421,2.7428,2.7494,2.7507,2.747,2.7585,2.7547,2.7556,2.7574,2.7586,2.7595,2.759,2.7433,0,0,0,0,0,2.7243,2.7286,2.7307,2.7371,2.7385,2.7394,2.7418,2.7414,2.7441,2.7452,2.7468,2.7495,2.7535,2.7561,2.7599,2.7677,2.7682,2.7711,2.7721,2.7728,2.7736,2.7775,2.7788,2.7652,2.7652,2.7652,0,0,2.728,2.73,2.7327,2.738,2.74,2.7443,2.7403,2.7451,2.7483,2.746,2.752,2.7533,2.7563,2.7633,2.7665,2.7647,2.7774,2.7736,2.7742,2.7745,2.7783,2.7795,2.7807,2.7656,2.7656,2.7655,0,0,2.7369,2.7389,2.7444,2.7464,2.7495,2.75,2.7513,2.754,2.7548,2.7609,2.7592,2.7629,2.7699,2.772,2.774,2.7835,2.782,2.7848,2.7897,2.7935,2.7946,2.7955,2.7987,2.7999,2.7856,2.7856,2.7856,0,2.7411,2.7475,2.7473,2.7522,2.7545,2.7526,2.758,2.76,2.7642,2.7658,2.7636,2.7722,2.7741,2.7815,2.7838,2.7855,2.7869,2.7844,2.7945,2.7954,2.7963,2.7993,2.8006,2.7859,2.7858,2.7858,2.7858,0,2.7524,2.757,2.761,2.765,2.7677,2.7729,2.7734,2.7762,2.7756,2.7763,2.7825,2.7847,2.7888,2.7905,2.79,2.7978,2.7965,2.7945,2.7906,2.7979,2.8007,2.8019,2.7863,2.7862,2.7861,2.786,0,0,2.764,2.7678,2.7692,2.7709,2.7741,2.7776,2.7826,2.7866,2.7889,2.7918,2.7959,2.8018,2.7998,2.8021,2.8018,2.8052,2.8124,2.8027,2.8028,2.8042,2.8208,2.8222,2.8236,2.8114,2.8116,2.8118,2.8205,0,2.773,2.7817,2.7816,2.7897,2.7937,2.7919,2.7962,2.7986,2.7994,2.803,2.8038,2.8079,2.8052,2.8065,2.8098,2.8108,2.8157,2.8102,2.8151,2.8152,2.8142,2.8251,2.8266,2.8347,2.8216,2.8218,2.822,0,2.7846,2.7878,2.7963,2.7987,2.8004,2.8043,2.8078,2.8113,2.8139,2.8142,2.8167,2.8158,2.8208,2.8169,2.8236,2.8199,2.8219,2.8227,2.823,2.8233,2.8189,2.8255,2.8373,2.8385,2.8238,2.8236,2.8235,0,2.7919,2.7984,2.8042,2.8058,2.8088,2.8116,2.8129,2.8153,2.8177,2.8208,2.8222,2.8259,2.8279,2.8307,2.8308,2.828,2.8375,2.8337,2.8378,2.8378,2.8398,2.8396,2.8519,2.8414,2.8414,2.8414,2.8413,0,2.8018,2.807,2.8075,2.8111,2.8168,2.8166,2.8223,2.8234,2.8255,2.8292,2.8279,2.8314,2.8314,2.8349,2.8351,2.8405,2.8415,2.8417,2.8417,2.8418,2.8417,2.8429,2.8423,2.8417,2.8416,2.8416,2.8415,0,2.811,2.8115,2.8177,2.8201,2.8208,2.8248,2.8268,2.8301,2.8308,2.8355,2.8365,2.8376,2.8416,2.8421,2.8468,2.8469,2.8534,2.8528,2.8525,2.8523,2.8563,2.8558,2.8696,2.8713,2.86,2.8601,2.8602,0,2.8171,2.8211,2.8238,2.8261,2.8276,2.8315,2.8338,2.8338,2.8363,2.8395,2.8424,2.8463,2.8494,2.856,2.8571,2.8607,2.8601,2.8647,2.8606,2.8605,2.8599,2.8595,2.8598,2.8654,2.8655,2.8656,2.8657,0,2.828,2.828,2.8315,2.835,2.8378,2.8406,2.8432,2.8452,2.8454,2.8483,2.8524,2.8548,2.8596,2.8634,2.8669,2.8682,2.867,2.867,2.8681,2.8681,2.8676,2.8677,2.8544,2.8666,2.8665,2.8665,2.8664,2.8664,2.8357,2.839,2.8414,2.8452,2.8471,2.8495,2.8527,2.8537,2.8572,2.861,2.8608,2.8653,2.8676,2.8722,2.8738,2.8772,2.8757,2.8773,2.8777,2.878,2.8783,2.8672,2.8779,2.8778,2.8778,2.8778,2.8778,0,2.8463,2.8477,2.8512,2.8548,2.8578,2.8563,2.8591,2.8616,2.8656,2.8679,2.871,2.8756,2.8793,2.8807,2.8842,2.8867,2.8862,2.8876,2.8873,2.8876,2.8796,2.8782,2.888,2.888,2.888,2.888,2.888,2.888,2.8521,2.8576,2.8579,2.8642,2.8656,2.8699,2.8716,2.8738,2.8756,2.8808,2.8838,2.8847,2.8866,2.8903,2.8935,2.8939,2.8951,2.8968,2.8968,2.8893,2.8882,2.8872,2.8859,2.8971,2.8971,2.9045,2.9046,2.9046]},{"header":{"parameterUnit":"m.s-1","parameterCategory":1,"la1":30.2991,"la2":30.254,"lo1":-89.0895,"lo2":-89.0444,"dy":0.0017,"dx":0.0017,"nx":28,"ny":28,"refTime":"2025-07-12T03:00:00:Z","depth":0,"parameterNumber":3,"parameterNumberName":"V-component_of_WINDS"},"data":[0,0,0,0,0,0,0,0,0,0,0,0,0,0,0,0,0,0,0,0,0,0,0,0,0,0,0,0,0,0,0,0,0,0,0,0,0,0,0,0,0,0,0,0,0,0,0,0,0,0,0,0,0,0,0,0,0,0,-0.9824,-0.9824,0,-0.9884,-0.9885,-0.9885,-0.9922,-0.9922,-0.9923,-0.9923,-0.9984,-0.9985,-0.9987,0,0,0,0,0,0,0,0,0,0,0,0,0,-0.974,-0.9741,-0.9824,-0.9824,-0.9825,-0.9884,-0.9885,-0.9886,-0.9922,-0.9922,-0.9923,-0.9923,-0.9983,-0.9985,-0.9987,0,0,0,0,0,0,0,0,0,0,0,0,0,-0.9786,-0.9741,-0.9823,-0.985,-0.9853,-0.9884,-0.9885,-0.9886,-0.9922,-0.9922,-0.9923,-0.9923,-0.9983,-0.9985,-0.9987,-0.9995,0,0,-0.9994,-0.9995,0,0,0,0,0,0,0,0,-0.9783,-0.9789,-0.9846,-0.9849,-0.9852,-0.9896,-0.9878,-0.9922,-0.9922,-0.9896,-0.9923,-0.9923,-0.9954,-0.9959,-0.997,-0.9998,-1.0001,-0.9994,-0.9995,-0.9996,-0.9997,0,0,0,0,0,0,0,-0.978,-0.9786,-0.9847,-0.9846,-0.985,-0.9859,-0.9866,-0.9886,-0.9923,-0.9898,-0.9901,-0.9908,-0.9956,-0.9967,-0.9971,-1.0002,-0.9994,-0.9996,-0.9997,-0.9998,-1.004,-1.004,0,0,0,0,0,0,-0.9772,-0.9783,-0.9846,-0.9849,-0.9817,-0.9861,-0.9868,-0.9881,-0.9923,-0.9929,-0.9907,-0.9909,-0.9964,-0.9969,-0.9974,-0.9986,-0.9996,-0.9998,-1.0,-1.004,-1.004,-1.004,0,0,0,0,0,0,-0.977,-0.9777,-0.9843,-0.9817,-0.9826,-0.9862,-0.9876,-0.9883,-0.9894,-0.993,-0.9936,-0.9912,-0.9964,-0.9971,-0.999,-0.9988,-0.9999,-1.0001,-1.0041,-1.004,-1.004,-1.001,0,0,0,0,0,0,-0.9768,-0.9777,-0.978,-0.9817,-0.9827,-0.9858,-0.9876,-0.9884,-0.9898,-0.9901,-0.9936,-0.9942,-0.9965,-0.9986,-0.9992,-0.9992,-1.0003,-1.0041,-1.004,-1.004,-1.0011,-1.0009,-1.0007,0,0,0,0,0,-0.9765,-0.9769,-0.978,-0.9787,-0.9832,-0.9858,-0.9864,-0.989,-0.9897,-0.9901,-0.9924,-0.9941,-0.9988,-0.9988,-0.9995,-0.9995,-1.0041,-1.004,-1.004,-1.0012,-1.0009,-1.0007,0,0,0,0,0,0,-0.9731,-0.9774,-0.9787,-0.9803,-0.9827,-0.9864,-0.987,-0.9886,-0.9907,-0.9909,-0.994,-0.9948,-0.9964,-0.9982,-0.9981,-1.0005,-1.0016,-1.0017,-0.9993,-0.999,-0.9988,-0.9983,-1.0005,0,0,0,0,0,-0.9725,-0.9742,-0.9779,-0.979,-0.9802,-0.9833,-0.9845,-0.9864,-0.9889,-0.9899,-0.9923,-0.9947,-0.9968,-0.998,-1.0001,-1.0014,-1.0023,-1.0018,-1.0016,-1.0014,-1.0014,-1.0022,-1.0021,-1.0038,-1.0038,-1.0038,0,0,-0.9714,-0.974,-0.9748,-0.9784,-0.9804,-0.9821,-0.9841,-0.9859,-0.9871,-0.9902,-0.9921,-0.994,-0.9969,-0.9985,-0.9994,-1.0,-1.0011,-1.0013,-1.0011,-1.0012,-1.0022,-1.002,-1.0019,-1.0038,-1.0038,-1.0038,0,0,-0.9701,-0.9723,-0.9734,-0.9754,-0.9785,-0.9806,-0.9809,-0.9844,-0.9858,-0.9878,-0.9901,-0.9917,-0.9951,-0.9971,-0.9985,-0.9981,-0.9997,-0.9987,-0.9974,-0.9982,-0.9981,-0.998,-0.9978,-0.9977,-0.9987,-0.9987,-0.9987,0,-0.9683,-0.971,-0.9738,-0.9754,-0.9769,-0.9798,-0.981,-0.9828,-0.9863,-0.9873,-0.988,-0.9923,-0.9945,-0.9966,-0.9965,-0.9976,-0.998,-0.9982,-0.9979,-0.9978,-0.9978,-0.9976,-0.9976,-0.9985,-0.9986,-0.9986,-0.9986,0,-0.9686,-0.9704,-0.971,-0.9744,-0.976,-0.9773,-0.9804,-0.9816,-0.9833,-0.9854,-0.9874,-0.9901,-0.9927,-0.9934,-0.995,-0.9958,-0.9961,-0.9973,-0.9985,-0.9974,-0.9973,-0.9973,-0.9983,-0.9984,-0.9984,-0.9985,0,0,-0.9653,-0.9703,-0.9705,-0.9721,-0.9757,-0.9771,-0.9786,-0.9813,-0.9823,-0.9846,-0.986,-0.9888,-0.99,-0.9916,-0.9935,-0.9943,-0.9937,-0.9954,-0.9955,-0.995,-0.9947,-0.9938,-0.9937,-0.9949,-0.9949,-0.9949,-0.9945,0,-0.9646,-0.9675,-0.9701,-0.972,-0.9737,-0.9765,-0.9778,-0.9802,-0.9822,-0.9839,-0.9861,-0.9881,-0.9894,-0.9905,-0.9913,-0.9936,-0.9937,-0.9937,-0.9961,-0.9962,-0.9953,-0.9936,-0.9926,-0.9921,-0.9945,-0.9945,-0.9945,0,-0.9642,-0.9664,-0.9685,-0.972,-0.9728,-0.974,-0.9766,-0.9782,-0.981,-0.9824,-0.9842,-0.9862,-0.988,-0.989,-0.9914,-0.9914,-0.9925,-0.9938,-0.9939,-0.9942,-0.9952,-0.9938,-0.992,-0.9919,-0.9945,-0.9945,-0.9945,0,-0.9615,-0.9651,-0.9669,-0.9681,-0.9722,-0.973,-0.9747,-0.9775,-0.9789,-0.9812,-0.9822,-0.9846,-0.9859,-0.9878,-0.9905,-0.991,-0.9926,-0.9939,-0.9938,-0.9937,-0.994,-0.9939,-0.9923,-0.9948,-0.9948,-0.9948,-0.9948,0,-0.9604,-0.9616,-0.9657,-0.9668,-0.9682,-0.9712,-0.9725,-0.9745,-0.9769,-0.9784,-0.981,-0.9823,-0.9857,-0.9875,-0.9896,-0.9913,-0.9919,-0.993,-0.9936,-0.9928,-0.9926,-0.9935,-0.9936,-0.9948,-0.9948,-0.9948,-0.9948,0,-0.9577,-0.9605,-0.9626,-0.9663,-0.9673,-0.9681,-0.9713,-0.9725,-0.9746,-0.9765,-0.9771,-0.9804,-0.9826,-0.9855,-0.9886,-0.99,-0.9914,-0.9923,-0.9905,-0.9908,-0.9906,-0.9905,-0.9894,-0.9894,-0.9919,-0.9919,-0.9919,0,-0.9568,-0.9578,-0.9616,-0.9628,-0.9645,-0.9663,-0.9678,-0.9708,-0.9723,-0.9755,-0.9762,-0.9786,-0.9807,-0.9841,-0.9868,-0.9892,-0.9901,-0.9896,-0.9905,-0.9897,-0.9901,-0.9899,-0.9901,-0.9893,-0.9892,-0.9892,-0.9892,0,-0.9549,-0.9562,-0.9583,-0.9608,-0.9625,-0.9646,-0.9668,-0.9677,-0.9712,-0.9727,-0.975,-0.9766,-0.9798,-0.9821,-0.9849,-0.9867,-0.9885,-0.9889,-0.989,-0.9882,-0.9871,-0.9876,-0.9898,-0.9889,-0.9889,-0.9889,-0.9889,-0.989,-0.953,-0.954,-0.9568,-0.959,-0.9611,-0.9631,-0.9643,-0.9667,-0.9686,-0.9715,-0.9732,-0.9754,-0.9782,-0.9821,-0.9838,-0.9856,-0.9863,-0.9864,-0.9865,-0.9864,-0.9862,-0.9868,-0.9861,-0.9861,-0.9861,-0.9861,-0.9861,0,-0.9512,-0.9532,-0.9551,-0.9582,-0.9599,-0.9616,-0.9642,-0.9655,-0.9674,-0.9698,-0.9719,-0.9745,-0.9768,-0.9797,-0.9823,-0.9831,-0.984,-0.9837,-0.9836,-0.984,-0.9854,-0.9851,-0.9829,-0.9829,-0.9829,-0.9829,-0.9829,-0.9829,-0.9504,-0.9522,-0.9539,-0.9567,-0.9587,-0.9609,-0.9622,-0.9641,-0.9661,-0.9689,-0.9709,-0.9728,-0.9754,-0.9782,-0.9804,-0.9812,-0.9819,-0.9813,-0.9824,-0.9836,-0.9839,-0.9842,-0.9839,-0.9815,-0.9815,-0.9808,-0.9808,-0.9808]}]]